Location: ?ern� Novina
(50.6762°N, 14.8696°E)
Time: 11:42:28
(UTC+00:00)

COSMOS 2428 - Pass Details

Date: 03 March 2021
Orbit: 845 x 858 km, 70.9° (Epoch: 13 April)

Event Time Altitude Azimuth Distance (km) Brightness Sun altitude
Rises 19:18:00 0° 199° (SSW) 3,394 5.8 -24.6°
Reaches altitude 10° 19:20:26 10° 197° (SSW) 2,463 5.1 -24.9°
Enters shadow 19:24:47 52° 174° (S) 1,044 2.9 -25.6°
Exits shadow 19:32:04 - 33° (NNE) 2,619 5.2 -26.6°
Sets 19:34:11 0° 32° (NNE) 3,426 5.8 -26.9°
